STARLINK-35650

Last updated on Wed Dec 31 2025 00:02:06 GMT+0000 (Coordinated Universal Time)

1 66573U 25268S 25364.58335648 .00054794 00000+0 19881-2 0 9999 2 66573 43.0006 17.5938 0001270 271.1458 242.4686 15.27544804 6023
UTC large
Height (km)
Speed (km/s)
/
Latitude / Longitude
Inclination (degrees)
Orbital Period (minutes)
Azimuth
Elevation
Range (km)
Doppler Factor

Next 0 passes for location: London (51.5072 / 0.1276)

Sorry there are no passes over London.